Date String (YYYY-MM-DD hh:mm:ss) UTC,Instrument flags,absolute air pressure of the measurement (hPa),sample flow rate (lpm),inlet stack bypass flow (lpm),air temperature of the measurement (°C),ambient temperature measured by the external sensor (°C),aerosol sample conditioner tube jacket temperature (°C),OPC LED temperature (°C),internal box temperature (°C),relative humidity of the measurement (%),span deviation,mass concentration of particles derived from Lorenz-Mie calculation of OPC scattering (μg/m³),mass concentration of particles derived from Lorenz-Mie calculation of OPC scattering (μg/m³),mass concentration of particles derived from Lorenz-Mie calculation of OPC scattering (μg/m³)
DateTimeUTC,F1_M11,P_M11,Q1_M11,Q2_M11,T1_M11,T2_M11,T3_M11,T4_M11,T5_M11,U1_M11,ZSPAN_M11,X0_M11,X2_M11,X1_M11
2023-06-10 23:00:00,SystemResetWarning,0828.8,5.00,000.00,029.3,026.8,000.0,037.8,030.7,20.9,0000.0,0004.51,0002.76,0002.00
2023-06-10 23:01:00,SystemResetWarning,0828.8,5.00,000.00,029.3,027.0,000.0,037.8,030.7,21.7,0000.0,0004.67,0002.83,0002.02
2023-06-10 23:02:00,SystemResetWarning,0828.8,5.00,000.00,029.3,027.3,000.0,037.8,030.7,21.6,0000.0,0004.78,0002.87,0002.03
2023-06-10 23:03:00,SystemResetWarning,0828.8,5.00,000.00,029.3,027.5,000.0,037.9,030.8,21.4,0000.0,0004.82,0002.90,0002.06
2023-06-10 23:04:00,SystemResetWarning,0828.8,4.99,000.00,029.3,027.6,000.0,037.9,030.8,21.7,0000.0,0004.76,0002.89,0002.08
2023-06-10 23:05:00,SystemResetWarning,0828.8,5.00,000.00,029.3,027.7,000.0,037.9,030.8,21.8,0000.0,0004.67,0002.89,0002.09
2023-06-10 23:06:00,SystemResetWarning,0828.8,5.00,000.00,029.4,027.9,000.0,037.9,030.9,22.1,0000.0,0004.94,0003.00,0002.12
2023-06-10 23:07:00,SystemResetWarning,0828.8,5.00,000.00,029.4,028.0,000.0,037.9,031.0,22.5,0000.0,0005.05,0003.06,0002.15
2023-06-10 23:08:00,SystemResetWarning,0828.8,5.01,000.00,029.4,028.1,000.0,037.9,031.0,21.5,0000.0,0004.82,0003.00,0002.16
2023-06-10 23:09:00,SystemResetWarning,0828.8,5.00,000.00,029.5,028.1,000.0,037.9,031.0,20.8,0000.0,0004.82,0003.01,0002.16
2023-06-10 23:10:00,SystemResetWarning,0828.8,5.00,000.00,029.5,028.2,000.0,037.9,031.1,21.4,0000.0,0004.87,0003.03,0002.17
2023-06-10 23:11:00,SystemResetWarning,0828.9,4.99,000.00,029.5,027.6,000.0,037.9,031.2,21.5,0000.0,0005.23,0003.04,0002.16
2023-06-10 23:12:00,SystemResetWarning,0828.8,5.00,000.00,029.5,025.6,000.0,037.9,031.1,20.9,0000.0,0005.51,0002.99,0002.14
2023-06-10 23:13:00,SystemResetWarning,0828.8,5.00,000.00,029.5,025.1,000.0,037.8,031.1,20.7,0000.0,0005.59,0002.99,0002.14
2023-06-10 23:14:00,SystemResetWarning,0828.9,5.01,000.00,029.4,025.4,000.0,037.8,030.8,21.3,0000.0,0005.52,0002.95,0002.12
2023-06-10 23:15:00,SystemResetWarning,0828.8,5.00,000.00,029.4,025.7,000.0,037.9,030.7,21.7,0000.0,0005.56,0002.95,0002.11
2023-06-10 23:16:00,SystemResetWarning,0828.8,4.99,000.00,029.3,026.1,000.0,037.9,030.7,20.2,0000.0,0005.54,0002.94,0002.11
2023-06-10 23:17:00,SystemResetWarning,0828.8,5.00,000.00,029.3,026.5,000.0,037.9,030.8,20.0,0000.0,0005.16,0002.80,0002.09
2023-06-10 23:18:00,SystemResetWarning,0828.8,5.00,000.00,029.3,026.8,000.0,037.9,030.8,19.8,0000.0,0005.00,0002.76,0002.08
2023-06-10 23:19:00,SystemResetWarning,0828.9,5.00,000.00,029.3,027.1,000.0,037.9,030.9,19.5,0000.0,0005.12,0002.81,0002.10
2023-06-10 23:20:00,SystemResetWarning,0829.0,5.00,000.00,029.3,027.3,000.0,037.9,030.9,20.7,0000.0,0005.23,0002.84,0002.11
2023-06-10 23:21:00,SystemResetWarning,0829.0,4.99,000.00,029.3,027.5,000.0,037.9,030.9,21.9,0000.0,0005.10,0002.81,0002.10
2023-06-10 23:22:00,SystemResetWarning,0829.0,5.00,000.00,029.4,027.7,000.0,037.9,031.0,20.3,0000.0,0004.70,0002.78,0002.11
2023-06-10 23:23:00,SystemResetWarning,0828.9,4.99,000.00,029.4,027.9,000.0,037.9,031.0,20.2,0000.0,0004.33,0002.79,0002.12
2023-06-10 23:24:00,SystemResetWarning,0829.0,5.00,000.00,029.4,028.0,000.0,037.9,031.1,20.8,0000.0,0004.43,0002.78,0002.13
2023-06-10 23:25:00,SystemResetWarning,0829.0,5.00,000.00,029.5,028.1,000.0,037.9,031.1,21.6,0000.0,0004.58,0002.85,0002.16
2023-06-10 23:26:00,SystemResetWarning,0829.0,5.00,000.00,029.5,028.2,000.0,037.9,031.1,19.6,0000.0,0004.66,0002.89,0002.19
2023-06-10 23:27:00,SystemResetWarning,0828.9,5.00,000.00,029.5,028.2,000.0,038.0,031.1,19.3,0000.0,0004.88,0002.99,0002.20
2023-06-10 23:28:00,SystemResetWarning,0828.9,5.00,000.00,029.6,027.8,000.0,038.0,031.2,19.5,0000.0,0005.15,0003.07,0002.20
2023-06-10 23:29:00,SystemResetWarning,0828.9,4.99,000.00,029.6,025.7,000.0,037.9,031.2,19.3,0000.0,0005.18,0003.08,0002.21
2023-06-10 23:30:00,SystemResetWarning,0828.7,5.01,000.00,029.6,025.2,000.0,037.9,031.1,20.3,0000.0,0005.26,0003.09,0002.21
2023-06-10 23:31:00,SystemResetWarning,0828.8,5.01,000.00,029.5,025.4,000.0,037.9,030.8,22.1,0000.0,0005.18,0003.05,0002.20
2023-06-10 23:32:00,SystemResetWarning,0828.7,4.99,000.00,029.4,025.7,000.0,037.9,030.7,22.3,0000.0,0005.04,0003.00,0002.19
2023-06-10 23:33:00,SystemResetWarning,0828.7,5.00,000.00,029.3,026.1,000.0,037.9,030.7,20.8,0000.0,0005.29,0003.08,0002.20
2023-06-10 23:34:00,SystemResetWarning,0828.7,5.01,000.00,029.3,026.5,000.0,037.9,030.8,20.9,0000.0,0005.55,0003.10,0002.21
2023-06-10 23:35:00,SystemResetWarning,0828.8,5.00,000.00,029.3,026.8,000.0,037.9,030.8,19.9,0000.0,0005.54,0003.12,0002.22
2023-06-10 23:36:00,SystemResetWarning,0828.7,5.00,000.00,029.3,027.1,000.0,037.9,030.9,19.4,0000.0,0005.51,0003.11,0002.20
2023-06-10 23:37:00,SystemResetWarning,0828.8,5.00,000.00,029.4,027.3,000.0,037.9,030.9,19.2,0000.0,0005.45,0003.09,0002.19
2023-06-10 23:38:00,SystemResetWarning,0828.8,5.00,000.00,029.4,027.5,000.0,037.9,030.9,19.6,0000.0,0005.40,0003.06,0002.20
2023-06-10 23:39:00,SystemResetWarning,0828.8,5.00,000.00,029.4,027.7,000.0,037.9,030.9,20.5,0000.0,0005.38,0003.06,0002.22
2023-06-10 23:40:00,SystemResetWarning,0828.8,4.99,000.00,029.4,027.8,000.0,037.9,031.0,21.6,0000.0,0005.42,0003.08,0002.23
2023-06-10 23:41:00,SystemResetWarning,0828.8,5.00,000.00,029.5,028.0,000.0,037.9,031.1,21.9,0000.0,0005.42,0003.09,0002.23
2023-06-10 23:42:00,SystemResetWarning,0828.8,5.00,000.00,029.5,028.1,000.0,037.9,031.1,22.2,0000.0,0005.38,0003.10,0002.23
2023-06-10 23:43:00,SystemResetWarning,0828.8,5.00,000.00,029.5,028.2,000.0,038.0,031.1,23.1,0000.0,0005.52,0003.13,0002.24
2023-06-10 23:44:00,SystemResetWarning,0828.7,5.00,000.00,029.6,028.3,000.0,038.0,031.2,24.5,0000.0,0005.38,0003.11,0002.24
2023-06-10 23:45:00,SystemResetWarning,0828.7,5.00,000.00,029.6,028.3,000.0,038.0,031.2,23.3,0000.0,0005.13,0003.11,0002.24
2023-06-10 23:46:00,SystemResetWarning,0828.7,4.98,000.00,029.6,027.1,000.0,038.0,031.2,22.8,0000.0,0005.09,0003.14,0002.24
2023-06-10 23:47:00,SystemResetWarning,0828.7,5.01,000.00,029.6,025.4,000.0,037.9,031.1,22.3,0000.0,0006.21,0003.16,0002.24
2023-06-10 23:48:00,SystemResetWarning,0828.6,5.01,000.00,029.6,025.3,000.0,037.9,031.0,21.5,0000.0,0007.43,0003.20,0002.24
2023-06-10 23:49:00,SystemResetWarning,0828.6,5.00,000.00,029.4,025.5,000.0,037.9,030.8,21.1,0000.0,0007.51,0003.22,0002.24
2023-06-10 23:50:00,SystemResetWarning,0828.7,5.00,000.00,029.4,025.9,000.0,037.9,030.8,22.0,0000.0,0007.48,0003.21,0002.24
2023-06-10 23:51:00,SystemResetWarning,0828.7,5.00,000.00,029.4,026.3,000.0,037.9,030.8,23.0,0000.0,0007.51,0003.22,0002.25
2023-06-10 23:52:00,SystemResetWarning,0828.7,5.00,000.00,029.4,026.7,000.0,037.9,030.9,23.4,0000.0,0007.53,0003.23,0002.25
2023-06-10 23:53:00,SystemResetWarning,0828.7,5.00,000.00,029.4,027.0,000.0,037.9,030.9,23.3,0000.0,0007.56,0003.26,0002.27
2023-06-10 23:54:00,SystemResetWarning,0828.7,5.00,000.00,029.4,027.2,000.0,037.9,030.9,24.1,0000.0,0008.00,0003.30,0002.28
2023-06-10 23:55:00,SystemResetWarning,0828.7,5.00,000.00,029.4,027.5,000.0,037.9,030.9,22.9,0000.0,0008.40,0003.29,0002.27
2023-06-10 23:56:00,SystemResetWarning,0828.7,5.01,000.00,029.4,027.6,000.0,037.9,031.0,22.5,0000.0,0008.46,0003.29,0002.28
2023-06-10 23:57:00,SystemResetWarning,0828.6,5.00,000.00,029.4,027.8,000.0,038.0,031.0,22.5,0000.0,0008.42,0003.26,0002.29
2023-06-10 23:58:00,SystemResetWarning,0828.7,4.99,000.00,029.5,027.9,000.0,038.0,031.1,23.1,0000.0,0007.89,0003.25,0002.29
2023-06-10 23:59:00,SystemResetWarning,0828.7,5.00,000.00,029.5,028.0,000.0,038.0,031.1,23.0,0000.0,0007.16,0003.23,0002.30
